N7DTY Weather Reports


time (UTC)temp
C
wind
direction
speed
KPH
gust
KPH
rain 1hr
cm
rain 24hr
cm
rain mn
cm
humidity
%
barometer
mb
20260906094505 10 30 0.0 3.2 0.00 0.00 0.00 89 1016.4
20260906093010 11 30 0.0 3.2 0.00 0.00 0.00 88 1016.4
20260906091504 11 30 0.0 1.6 0.00 0.00 0.00 87 1016.6
20260906090059 11 30 0.0 1.6 0.00 0.00 0.00 86 1016.6
20260906084601 11 30 0.0 1.6 0.00 0.00 0.00 86 1016.7
20260906083055 12 30 0.0 6.4 0.00 0.00 0.00 86 1016.8
20260906081557 12 5 4.8 6.4 0.00 0.00 0.00 85 1016.6
20260906080056 12 355 0.0 6.4 0.00 0.00 0.00 84 1016.7
20260906074553 12 355 4.8 6.4 0.00 0.00 0.00 85 1016.7
20260906073051 12 350 4.8 8.0 0.00 0.00 0.00 87 1016.8
20260906071546 12 355 3.2 6.4 0.00 0.00 0.00 89 1017.0
20260906070044 12 199 0.0 1.6 0.00 0.00 0.00 88 1017.0
20260906064542 12 199 0.0 0.0 0.00 0.00 0.00 87 1016.8
20260906063045 12 199 0.0 0.0 0.00 0.00 0.00 86 1016.7
20260906061541 12 199 0.0 0.0 0.00 0.00 0.00 86 1016.8
20260906060041 12 199 0.0 1.6 0.00 0.00 0.00 86 1016.8
20260906054558 12 199 0.0 0.0 0.00 0.00 0.00 85 1016.9
20260906053039 13 199 0.0 0.0 0.00 0.00 0.00 84 1017.0
20260906051539 13 199 0.0 0.0 0.00 0.00 0.00 84 1017.1
20260906050040 13 199 0.0 0.0 0.00 0.00 0.00 83 1017.2
20260906044538 13 199 0.0 0.0 0.00 0.00 0.00 82 1017.2
20260906043038 13 199 0.0 1.6 0.00 0.00 0.00 82 1017.2
20260906041537 13 199 0.0 0.0 0.00 0.00 0.00 81 1017.1
20260906040045 13 199 0.0 0.0 0.00 0.00 0.00 81 1017.1
20260906034547 14 199 0.0 0.0 0.00 0.00 0.00 80 1017.0
20260906033036 15 199 0.0 0.0 0.00 0.00 0.00 80 1017.0
20260906031602 15 199 0.0 0.0 0.00 0.00 0.00 78 1016.9
20260906030038 16 199 0.0 0.0 0.00 0.00 0.00 76 1016.9
20260906024553 16 199 0.0 0.0 0.00 0.00 0.00 74 1016.8
20260906023041 16 199 0.0 0.0 0.00 0.00 0.00 73 1016.9
20260906021534 16 199 0.0 0.0 0.00 0.00 0.00 73 1017.0
20260906020033 17 199 0.0 0.0 0.00 0.00 0.00 72 1016.8
20260906014533 17 199 0.0 1.6 0.00 0.00 0.00 72 1016.7
20260906013033 17 199 0.0 0.0 0.00 0.00 0.00 70 1016.5
20260906011533 17 194 0.0 0.0 0.00 0.00 0.00 71 1016.5
20260906010044 17 194 0.0 3.2 0.00 0.00 0.00 71 1016.4
20260906004531 18 195 1.6 6.4 0.00 0.00 0.00 70 1016.4
20260906003030 18 183 1.6 6.4 0.00 0.00 0.00 67 1016.5
20260906001535 18 161 1.6 4.8 0.00 0.00 0.00 67 1016.5
20260906000030 18 148 0.0 4.8 0.00 0.00 0.00 68 1016.4
20260905234529 18 178 0.0 4.8 0.00 0.00 0.00 68 1016.5
20260905233028 18 159 1.6 6.4 0.00 0.00 0.00 69 1016.5
20260905231528 18 138 0.0 4.8 0.00 0.00 0.00 75 1016.4
20260905230033 18 166 1.6 8.0 0.00 0.00 0.00 76 1016.4
20260905224527 18 144 3.2 8.0 0.00 0.00 0.00 75 1016.5
20260905223028 19 167 1.6 8.0 0.00 0.00 0.00 69 1016.6
20260905221527 19 167 4.8 9.7 0.00 0.00 0.00 70 1016.6
20260905220028 20 163 3.2 6.4 0.00 0.00 0.00 67 1016.7
20260905214525 20 190 1.6 9.7 0.00 0.00 0.00 65 1016.7
20260905213024 20 153 3.2 9.7 0.00 0.00 0.00 67 1016.8
20260905211542 20 229 1.6 8.0 0.00 0.00 0.00 65 1017.0
20260905210022 20 189 3.2 6.4 0.00 0.00 0.00 64 1016.9
20260905204519 20 195 1.6 9.7 0.00 0.00 0.00 68 1017.1
20260905203016 19 178 1.6 12.9 0.00 0.00 0.00 73 1017.2
20260905201514 18 282 1.6 8.0 0.00 0.00 0.00 77 1017.2
20260905200013 17 215 1.6 8.0 0.00 0.00 0.00 75 1017.4
20260905194512 17 180 3.2 8.0 0.00 0.00 0.00 77 1017.4
20260905193010 18 286 1.6 6.4 0.00 0.00 0.00 77 1017.5
20260905191509 18 246 1.6 8.0 0.00 0.00 0.00 77 1017.6
20260905190005 17 199 1.6 8.0 0.00 0.00 0.00 79 1017.6
20260905184502 17 215 3.2 9.7 0.00 0.00 0.00 81 1017.8
20260905183059 17 190 3.2 8.0 0.00 0.00 0.00 79 1017.7
20260905181556 16 191 1.6 9.7 0.00 0.00 0.00 82 1017.9
20260905174554 16 184 3.2 9.7 0.00 0.00 0.00 81 1017.8
20260905173058 16 148 0.0 6.4 0.00 0.00 0.00 83 1017.7
20260905171541 15 170 1.6 6.4 0.00 0.00 0.00 85 1017.7
20260905170040 15 105 4.8 11.3 0.00 0.00 0.00 85 1017.8
20260905164536 15 150 0.0 4.8 0.00 0.00 0.00 87 1017.9
20260905163033 14 238 0.0 3.2 0.00 0.00 0.00 89 1018.0
20260905161532 14 195 0.0 3.2 0.00 0.00 0.00 90 1017.7
20260905160033 13 195 0.0 3.2 0.00 0.00 0.00 91 1017.7
20260905154525 13 195 0.0 1.6 0.00 0.00 0.00 92 1017.6
20260905153023 13 188 0.0 8.0 0.00 0.00 0.00 92 1017.5
20260905151521 13 181 0.0 1.6 0.00 0.00 0.00 93 1017.4
20260905150020 13 259 0.0 3.2 0.00 0.00 0.00 94 1017.4
20260905144514 13 259 0.0 0.0 0.00 0.00 0.00 94 1017.6
20260905143013 12 259 0.0 1.6 0.00 0.00 0.00 94 1017.6
20260905141523 12 259 0.0 1.6 0.00 0.00 0.00 94 1017.5
20260905140012 12 259 0.0 0.0 0.00 0.00 0.00 93 1017.3
20260905134509 12 259 0.0 1.6 0.00 0.00 0.00 94 1017.3
20260905133006 12 259 0.0 0.0 0.00 0.00 0.00 93 1017.2
20260905131506 12 259 0.0 0.0 0.00 0.00 0.00 93 1017.1
20260905130006 12 259 0.0 1.6 0.00 0.00 0.00 93 1017.1
20260905124510 12 259 0.0 1.6 0.00 0.00 0.00 94 1017.1
20260905123006 12 259 0.0 0.0 0.00 0.00 0.00 93 1017.0
20260905121502 12 259 0.0 0.0 0.00 0.00 0.00 93 1016.9
20260905120002 12 259 0.0 1.6 0.00 0.00 0.00 93 1016.8
20260905114501 12 259 1.6 3.2 0.00 0.00 0.00 93 1016.8
20260905113100 12 259 0.0 0.0 0.00 0.00 0.00 93 1016.9
20260905113001 12 259 0.0 1.6 0.00 0.00 0.00 93 1016.8
20260905111600 12 259 1.6 3.2 0.00 0.00 0.00 93 1016.9
20260905110111 12 259 0.0 3.2 0.00 0.00 0.00 93 1016.8
20260905104559 12 258 0.0 0.0 0.00 0.00 0.00 93 1016.6
20260905103059 11 258 0.0 0.0 0.00 0.00 0.00 93 1016.7
20260905101607 11 258 0.0 0.0 0.00 0.00 0.00 92 1016.7
20260905100057 12 258 0.0 0.0 0.00 0.00 0.00 92 1016.5